Location: Hylvaty SDH
(49.9612°N, 16.4057°E)
Time: 11:27:30
(UTC+01:00)

Tiros 1 - Pass Details

Date: 07 October 2020
Orbit: 630 x 663 km, 48.4° (Epoch: 28 October)

Event Time Altitude Azimuth Distance (km) Brightness Sun altitude
Rises 14:03:15 0° 253° (WSW) 2,934 11.1 31.5°
Reaches altitude 10° 14:05:35 10° 250° (WSW) 2,031 10.4 31.4°
Maximum altitude 14:10:13 67° 169° (S) 703 8.3 31.1°
Drops below altitude 10° 14:14:55 10° 87° (E) 2,056 9.6 30.7°
Sets 14:17:17 0° 85° (E) 2,974 10.3 30.6°
